EW7937 Weather Reports


Display with metric or nautical units.
time (UTC)temp
F
wind
direction
speed
MPH
gust
MPH
rain 1hr
in
rain 24hr
in
rain mn
in
humidity
%
barometer
mb
20260904090805 67 300 0.0 3.0 0.00 0.00 0.00 73 1011.1
20260904090614 67 295 0.0 3.0 0.00 0.00 0.00 73 1011.2
20260904090318 67 279 1.0 3.0 0.00 0.00 0.00 73 1011.1
20260904085305 67 289 0.0 3.0 0.00 0.00 0.00 73 1011.2
20260904084802 67 289 0.0 3.0 0.00 0.00 0.00 72 1011.2
20260904084550 68 296 0.0 9.0 0.00 0.00 0.00 72 1011.2
20260904084052 68 303 0.0 13.0 0.00 0.00 0.00 72 1011.2
20260904083304 68 304 0.0 13.0 0.00 0.00 0.00 72 1011.2
20260904083053 68 302 4.0 11.0 0.00 0.00 0.00 72 1011.1
20260904082552 68 295 1.0 9.0 0.00 0.00 0.00 72 1011.1
20260904081804 68 271 2.0 9.0 0.00 0.00 0.00 71 1011.1
20260904081304 68 286 0.0 14.0 0.00 0.00 0.00 71 1011.1
20260904080802 68 297 3.0 14.0 0.00 0.00 0.00 71 1011.1
20260904080304 68 296 0.0 3.0 0.00 0.00 0.00 71 1011.1
20260904080047 69 311 0.0 3.0 0.00 0.00 0.00 71 1011.0
20260904075306 69 305 1.0 3.0 0.00 0.00 0.00 70 1010.9
20260904074804 69 303 0.0 3.0 0.00 0.00 0.00 70 1010.9
20260904074303 69 319 0.0 8.0 0.00 0.00 0.00 69 1010.9
20260904074039 69 296 1.0 8.0 0.00 0.00 0.00 69 1010.8
20260904073429 69 310 0.0 13.0 0.00 0.00 0.00 68 1010.8
20260904073405 69 294 2.0 8.0 0.00 0.00 0.00 68 1010.8
20260904072829 69 294 0.0 7.0 0.00 0.00 0.00 68 1010.8
20260904071803 70 292 4.0 13.0 0.00 0.00 0.00 67 1010.7
20260904071305 70 315 1.0 9.0 0.00 0.00 0.00 67 1010.8
20260904071059 70 298 0.0 7.0 0.00 0.00 0.00 66 1010.8
20260904070304 70 289 0.0 11.0 0.00 0.00 0.00 66 1010.7
20260904065803 70 290 1.0 13.0 0.00 0.00 0.00 65 1010.7
20260904065553 70 304 5.0 13.0 0.00 0.00 0.00 64 1010.7
20260904064803 71 289 4.0 10.0 0.00 0.00 0.00 64 1010.6
20260904064304 71 312 0.0 9.0 0.00 0.00 0.00 63 1010.6
20260904063804 71 300 0.0 7.0 0.00 0.00 0.00 62 1010.6
20260904063345 71 271 0.0 9.0 0.00 0.00 0.00 61 1010.6
20260904063329 71 273 1.0 7.0 0.00 0.00 0.00 62 1010.6
20260904062553 71 299 0.0 9.0 0.00 0.00 0.00 61 1010.5
20260904062151 72 297 2.0 9.0 0.00 0.00 0.00 59 1010.5
20260904062144 72 309 0.0 1.0 0.00 0.00 0.00 58 1010.4
20260904062137 71 285 0.0 9.0 0.00 0.00 0.00 60 1010.6
20260904060304 72 313 0.0 0.0 0.00 0.00 0.00 57 1010.5
20260904055804 73 313 0.0 0.0 0.00 0.00 0.00 56 1010.3
20260904055306 73 313 0.0 1.0 0.00 0.00 0.00 55 1010.4
20260904054803 73 313 0.0 4.0 0.00 0.00 0.00 54 1010.4
20260904054305 73 301 0.0 5.0 0.00 0.00 0.00 53 1010.4
20260904053802 74 296 1.0 5.0 0.00 0.00 0.00 51 1010.4
20260904053302 74 297 0.0 5.0 0.00 0.00 0.00 50 1010.5
20260904052805 74 288 0.0 0.0 0.00 0.00 0.00 49 1010.6
20260904052306 75 288 0.0 9.0 0.00 0.00 0.00 48 1010.5
20260904051803 75 288 0.0 11.0 0.00 0.00 0.00 47 1010.6
20260904051303 75 290 1.0 12.0 0.00 0.00 0.00 47 1010.6
20260904050804 76 287 4.0 12.0 0.00 0.00 0.00 45 1010.6
20260904050304 76 306 0.0 10.0 0.00 0.00 0.00 44 1010.6
20260904045801 76 311 1.0 10.0 0.00 0.00 0.00 43 1010.5
20260904045306 76 296 0.0 6.0 0.00 0.00 0.00 42 1010.4
20260904044803 76 295 1.0 6.0 0.00 0.00 0.00 41 1010.4
20260904044303 76 287 0.0 0.0 0.00 0.00 0.00 41 1010.3
20260904043803 76 287 0.0 0.0 0.00 0.00 0.00 41 1010.3
20260904043304 77 287 0.0 0.0 0.00 0.00 0.00 41 1010.3
20260904043045 77 287 0.0 0.0 0.00 0.00 0.00 41 1010.2
20260904042306 77 287 0.0 0.0 0.00 0.00 0.00 42 1010.2
20260904041805 77 287 0.0 0.0 0.00 0.00 0.00 43 1010.2
20260904041302 77 287 0.0 0.0 0.00 0.00 0.00 42 1010.2
20260904040804 77 287 0.0 0.0 0.00 0.00 0.00 42 1010.1
20260904040301 77 287 0.0 0.0 0.00 0.00 0.00 43 1010.1
20260904035804 77 287 0.0 0.0 0.00 0.00 0.00 44 1010.1
20260904035306 77 287 0.0 0.0 0.00 0.00 0.00 44 1010.0
20260904034803 77 287 0.0 0.0 0.00 0.00 0.00 44 1009.9
20260904034305 77 287 0.0 0.0 0.00 0.00 0.00 44 1009.9
20260904033803 77 287 0.0 0.0 0.00 0.00 0.00 44 1009.8
20260904033304 77 287 0.0 0.0 0.00 0.00 0.00 45 1009.7
20260904032804 77 287 0.0 0.0 0.00 0.00 0.00 45 1009.7
20260904032305 78 287 0.0 0.0 0.00 0.00 0.00 45 1009.6
20260904031803 78 287 0.0 0.0 0.00 0.00 0.00 44 1009.5
20260904031303 78 287 0.0 0.0 0.00 0.00 0.00 44 1009.5
20260904030802 78 287 0.0 0.0 0.00 0.00 0.00 43 1009.4
20260904030303 79 287 0.0 0.0 0.00 0.00 0.00 42 1009.5
20260904025804 79 287 0.0 0.0 0.00 0.00 0.00 41 1009.5
20260904025306 80 287 0.0 0.0 0.00 0.00 0.00 41 1009.5
20260904024803 80 287 0.0 0.0 0.00 0.00 0.00 41 1009.5
20260904024303 80 287 0.0 0.0 0.00 0.00 0.00 40 1009.5
20260904023804 81 287 0.0 0.0 0.00 0.00 0.00 39 1009.5
20260904023301 81 287 0.0 0.0 0.00 0.00 0.00 38 1009.6
20260904022803 82 287 0.0 0.0 0.00 0.00 0.00 38 1009.6
20260904022305 82 287 0.0 0.0 0.00 0.00 0.00 37 1009.6
20260904021802 82 287 0.0 0.0 0.00 0.00 0.00 36 1009.7
20260904021302 83 287 0.0 0.0 0.00 0.00 0.00 36 1009.7
20260904020804 83 287 0.0 0.0 0.00 0.00 0.00 36 1009.8
20260904020303 83 287 0.0 0.0 0.00 0.00 0.00 36 1009.9
20260904015805 83 287 0.0 0.0 0.00 0.00 0.00 35 1009.8
20260904015306 84 287 0.0 0.0 0.00 0.00 0.00 35 1009.9
20260904014803 84 287 0.0 0.0 0.00 0.00 0.00 35 1009.9
20260904014337 85 287 0.0 0.0 0.00 0.00 0.00 36 1009.9
20260904014324 84 287 0.0 0.0 0.00 0.00 0.00 35 1009.9
20260904013304 85 287 0.0 0.0 0.00 0.00 0.00 34 1009.9
20260904012803 85 287 0.0 0.0 0.00 0.00 0.00 35 1010.0
20260904012306 85 287 0.0 0.0 0.00 0.00 0.00 35 1010.0
20260904011804 86 287 0.0 0.0 0.00 0.00 0.00 34 1010.0
20260904011302 86 287 0.0 0.0 0.00 0.00 0.00 33 1010.1
20260904010804 86 287 0.0 0.0 0.00 0.00 0.00 34 1010.0
20260904010304 86 287 0.0 0.0 0.00 0.00 0.00 33 1010.0
20260904005802 87 287 0.0 0.0 0.00 0.00 0.00 33 1010.0
20260904005306 87 287 0.0 0.0 0.00 0.00 0.00 34 1010.0
20260904004803 87 287 0.0 0.0 0.00 0.00 0.00 33 1010.2
20260904004306 87 287 0.0 4.0 0.00 0.00 0.00 34 1010.2
20260904004048 87 287 0.0 4.0 0.00 0.00 0.00 34 1010.1
20260904003553 87 309 0.0 0.0 0.00 0.00 0.00 34 1010.2
20260904002802 87 309 0.0 0.0 0.00 0.00 0.00 33 1010.2
20260904002549 87 309 0.0 0.0 0.00 0.00 0.00 33 1010.3
20260904002057 88 309 0.0 1.0 0.00 0.00 0.00 33 1010.4
20260904001556 88 309 0.0 1.0 0.00 0.00 0.00 33 1010.3
20260904000802 88 244 0.0 0.0 0.00 0.00 0.00 32 1010.4
20260904000549 88 244 0.0 0.0 0.00 0.00 0.00 31 1010.3
20260903235803 88 244 0.0 0.0 0.00 0.00 0.00 31 1010.4
20260903235305 88 244 0.0 0.0 0.00 0.00 0.00 33 1010.4
20260903234803 88 244 0.0 0.0 0.00 0.00 0.00 32 1010.4
20260903234304 88 244 0.0 0.0 0.00 0.00 0.00 33 1010.5
20260903233802 88 244 0.0 0.0 0.00 0.00 0.00 31 1010.6
20260903233304 88 244 0.0 0.0 0.00 0.00 0.00 32 1010.6
20260903232803 89 244 0.0 0.0 0.00 0.00 0.00 31 1010.7
20260903232538 89 244 0.0 0.0 0.00 0.00 0.00 31 1010.7
20260903231805 89 244 0.0 0.0 0.00 0.00 0.00 33 1010.7
20260903231305 89 244 0.0 6.0 0.00 0.00 0.00 32 1010.8
20260903230804 89 244 0.0 6.0 0.00 0.00 0.00 32 1010.9
20260903230302 89 265 0.0 0.0 0.00 0.00 0.00 34 1010.9
20260903225804 89 265 0.0 0.0 0.00 0.00 0.00 32 1011.0
20260903225548 89 265 0.0 0.0 0.00 0.00 0.00 32 1011.1
20260903224802 90 265 0.0 0.0 0.00 0.00 0.00 31 1011.1
20260903224304 90 265 0.0 0.0 0.00 0.00 0.00 31 1011.3
20260903224135 89 265 0.0 0.0 0.00 0.00 0.00 33 1011.3
20260903223826 90 265 0.0 0.0 0.00 0.00 0.00 31 1011.3
20260903222804 89 265 0.0 0.0 0.00 0.00 0.00 33 1011.5
20260903222306 89 265 0.0 0.0 0.00 0.00 0.00 33 1011.5
20260903221806 89 265 0.0 0.0 0.00 0.00 0.00 32 1011.6
20260903221554 89 265 0.0 0.0 0.00 0.00 0.00 32 1011.6
20260903220804 89 265 0.0 0.0 0.00 0.00 0.00 33 1011.8
20260903220555 89 265 0.0 0.0 0.00 0.00 0.00 33 1012.0
20260903215801 89 265 0.0 6.0 0.00 0.00 0.00 34 1012.0
20260903215306 89 265 0.0 6.0 0.00 0.00 0.00 34 1012.0
20260903214803 89 233 0.0 1.0 0.00 0.00 0.00 34 1012.1
20260903214304 89 233 0.0 1.0 0.00 0.00 0.00 32 1012.1
20260903213802 89 229 0.0 0.0 0.00 0.00 0.00 33 1012.1
20260903213303 89 229 0.0 4.0 0.00 0.00 0.00 34 1012.2
20260903213052 89 229 0.0 4.0 0.00 0.00 0.00 33 1012.2
20260903212302 89 279 0.0 0.0 0.00 0.00 0.00 34 1012.2
20260903211803 89 279 0.0 0.0 0.00 0.00 0.00 35 1012.3
20260903211553 88 279 0.0 0.0 0.00 0.00 0.00 36 1012.4
20260903210803 88 279 0.0 0.0 0.00 0.00 0.00 34 1012.4
20260903210303 88 279 0.0 0.0 0.00 0.00 0.00 34 1012.6
20260903205803 88 279 0.0 1.0 0.00 0.00 0.00 35 1012.7
20260903205306 88 279 0.0 1.0 0.00 0.00 0.00 36 1012.7
20260903204804 87 323 0.0 0.0 0.00 0.00 0.00 37 1012.7
20260903204304 87 323 0.0 0.0 0.00 0.00 0.00 34 1012.9
20260903203803 87 323 0.0 0.0 0.00 0.00 0.00 35 1012.9
20260903203302 87 323 0.0 0.0 0.00 0.00 0.00 35 1012.9
20260903202803 87 323 0.0 0.0 0.00 0.00 0.00 37 1012.9
20260903202302 87 323 0.0 0.0 0.00 0.00 0.00 37 1012.9
20260903201803 86 323 0.0 0.0 0.00 0.00 0.00 39 1013.0
20260903201304 86 323 0.0 0.0 0.00 0.00 0.00 37 1013.0
20260903200803 86 323 0.0 0.0 0.00 0.00 0.00 35 1013.1
20260903200306 86 323 0.0 0.0 0.00 0.00 0.00 36 1013.2
20260903195804 86 323 0.0 0.0 0.00 0.00 0.00 35 1013.2
20260903195306 86 323 0.0 0.0 0.00 0.00 0.00 38 1013.4
20260903194802 86 323 0.0 0.0 0.00 0.00 0.00 37 1013.5
20260903194303 85 323 0.0 0.0 0.00 0.00 0.00 37 1013.5
20260903193802 85 323 0.0 0.0 0.00 0.00 0.00 37 1013.5
20260903193303 85 323 0.0 0.0 0.00 0.00 0.00 38 1013.6
20260903192802 84 323 0.0 0.0 0.00 0.00 0.00 38 1013.5
20260903192306 84 323 0.0 0.0 0.00 0.00 0.00 38 1013.7
20260903191805 83 323 0.0 0.0 0.00 0.00 0.00 39 1013.8
20260903191304 84 323 0.0 0.0 0.00 0.00 0.00 37 1013.8
20260903190804 83 323 0.0 0.0 0.00 0.00 0.00 38 1013.9
20260903190304 83 323 0.0 0.0 0.00 0.00 0.00 39 1014.0
20260903190052 82 323 0.0 0.0 0.00 0.00 0.00 39 1014.1
20260903185306 82 323 0.0 0.0 0.00 0.00 0.00 40 1014.2
20260903184805 81 323 0.0 0.0 0.00 0.00 0.00 41 1014.4
20260903184304 81 323 0.0 0.0 0.00 0.00 0.00 41 1014.4
20260903184051 81 323 0.0 0.0 0.00 0.00 0.00 41 1014.6
20260903183302 81 323 0.0 0.0 0.00 0.00 0.00 40 1014.6
20260903182802 81 323 0.0 0.0 0.00 0.00 0.00 40 1014.6
20260903182302 80 323 0.0 0.0 0.00 0.00 0.00 43 1014.7
20260903181803 80 323 0.0 0.0 0.00 0.00 0.00 41 1014.7
20260903181549 80 323 0.0 0.0 0.00 0.00 0.00 43 1014.7
20260903180802 80 323 0.0 0.0 0.00 0.00 0.00 44 1014.7
20260903180304 80 323 0.0 0.0 0.00 0.00 0.00 42 1014.7
20260903175804 79 323 0.0 0.0 0.00 0.00 0.00 44 1014.6
20260903175305 79 323 0.0 0.0 0.00 0.00 0.00 45 1014.8
20260903174755 78 323 0.0 0.0 0.00 0.00 0.00 47 1014.7
20260903174547 78 323 0.0 0.0 0.00 0.00 0.00 46 1014.8
20260903173755 77 323 0.0 0.0 0.00 0.00 0.00 47 1014.7
20260903173253 77 323 0.0 0.0 0.00 0.00 0.00 47 1014.7
20260903172750 77 323 0.0 0.0 0.00 0.00 0.00 48 1014.9
20260903172539 76 323 0.0 0.0 0.00 0.00 0.00 49 1015.0
20260903171749 76 323 0.0 0.0 0.00 0.00 0.00 49 1015.0
20260903171525 75 323 0.0 0.0 0.00 0.00 0.00 52 1015.1
20260903170732 75 323 0.0 0.0 0.00 0.00 0.00 49 1015.0
20260903170232 75 323 0.0 0.0 0.00 0.00 0.00 51 1014.9
20260903165731 74 323 0.0 0.0 0.00 0.00 0.00 51 1015.1
20260903165228 74 323 0.0 0.0 0.00 0.00 0.00 51 1015.1
20260903164727 73 323 0.0 0.0 0.00 0.00 0.00 53 1015.2
20260903164225 73 323 0.0 0.0 0.00 0.00 0.00 53 1015.1
20260903163725 73 323 0.0 0.0 0.00 0.00 0.00 53 1015.2
20260903163218 72 323 0.0 0.0 0.00 0.00 0.00 55 1015.2
20260903163011 72 323 0.0 0.0 0.00 0.00 0.00 56 1015.3
20260903162217 71 323 0.0 0.0 0.00 0.00 0.00 58 1015.2
20260903161719 71 323 0.0 0.0 0.00 0.00 0.00 58 1015.2
20260903161218 71 323 0.0 0.0 0.00 0.00 0.00 58 1015.1
20260903160714 70 323 0.0 0.0 0.00 0.00 0.00 58 1015.1
20260903160216 69 323 0.0 0.0 0.00 0.00 0.00 59 1015.1
20260903155714 69 323 0.0 0.0 0.00 0.00 0.00 60 1015.1
20260903155212 68 323 0.0 0.0 0.00 0.00 0.00 62 1015.1
20260903154710 67 323 0.0 0.0 0.00 0.00 0.00 63 1015.1
20260903154209 67 323 0.0 0.0 0.00 0.00 0.00 63 1015.1
20260903153708 66 323 0.0 0.0 0.00 0.00 0.00 64 1015.2
20260903153205 66 323 0.0 0.0 0.00 0.00 0.00 66 1015.1
20260903152702 65 323 0.0 0.0 0.00 0.00 0.00 67 1015.2
20260903152204 64 323 0.0 0.0 0.00 0.00 0.00 68 1015.3
20260903151702 63 323 0.0 1.0 0.00 0.00 0.00 69 1015.3
20260903151204 63 323 0.0 1.0 0.00 0.00 0.00 70 1015.2
20260903150740 62 311 0.0 2.0 0.00 0.00 0.00 72 1015.2
20260903150724 62 311 0.0 2.0 0.00 0.00 0.00 72 1015.2
20260903145653 61 307 0.0 1.0 0.00 0.00 0.00 72 1015.2
20260903145227 61 282 0.0 1.0 0.00 0.00 0.00 73 1015.2
20260903145209 61 307 0.0 1.0 0.00 0.00 0.00 72 1015.3
20260903144147 61 282 0.0 1.0 0.00 0.00 0.00 73 1015.1
20260903143646 61 310 0.0 4.0 0.00 0.00 0.00 73 1015.1
20260903143142 60 310 0.0 4.0 0.00 0.00 0.00 73 1015.0
20260903142640 60 313 0.0 1.0 0.00 0.00 0.00 73 1015.0
20260903142133 60 304 0.0 1.0 0.00 0.00 0.00 73 1015.0
20260903141632 60 302 0.0 1.0 0.00 0.00 0.00 74 1014.8
20260903141213 60 298 0.0 0.0 0.00 0.00 0.00 74 1014.9
20260903141152 60 298 0.0 0.0 0.00 0.00 0.00 74 1014.8
20260903140422 60 298 0.0 0.0 0.00 0.00 0.00 74 1014.7
20260903135634 60 298 0.0 0.0 0.00 0.00 0.00 74 1014.6
20260903135134 60 298 0.0 0.0 0.00 0.00 0.00 73 1014.6
20260903134634 60 298 0.0 0.0 0.00 0.00 0.00 73 1014.6
20260903134133 60 298 0.0 0.0 0.00 0.00 0.00 73 1014.5
20260903133919 60 298 0.0 0.0 0.00 0.00 0.00 73 1014.5
20260903133134 60 298 0.0 0.0 0.00 0.00 0.00 72 1014.5
20260903132633 60 298 0.0 0.0 0.00 0.00 0.00 72 1014.5
20260903132133 61 298 0.0 0.0 0.00 0.00 0.00 72 1014.5
20260903131632 61 298 0.0 0.0 0.00 0.00 0.00 71 1014.5
20260903131132 61 298 0.0 0.0 0.00 0.00 0.00 71 1014.5
20260903130634 61 298 0.0 0.0 0.00 0.00 0.00 71 1014.5
20260903130132 61 298 0.0 0.0 0.00 0.00 0.00 71 1014.4
20260903125922 61 298 0.0 0.0 0.00 0.00 0.00 71 1014.4
20260903125125 61 298 0.0 0.0 0.00 0.00 0.00 71 1014.4
20260903124620 61 298 0.0 0.0 0.00 0.00 0.00 71 1014.4
20260903124111 61 298 0.0 0.0 0.00 0.00 0.00 70 1014.4
20260903123608 62 298 0.0 0.0 0.00 0.00 0.00 70 1014.3
20260903123104 62 298 0.0 0.0 0.00 0.00 0.00 70 1014.4
20260903122602 62 298 0.0 9.0 0.00 0.00 0.00 70 1014.3
20260903122103 62 298 1.0 9.0 0.00 0.00 0.00 71 1014.4
20260903121606 62 301 0.0 0.0 0.00 0.00 0.00 71 1014.3
20260903121104 62 301 0.0 1.0 0.00 0.00 0.00 71 1014.3
20260903120853 62 301 0.0 7.0 0.00 0.00 0.00 71 1014.3
20260903120104 62 296 1.0 7.0 0.00 0.00 0.00 71 1014.3
20260903115604 62 309 0.0 2.0 0.00 0.00 0.00 71 1014.3
20260903115103 62 304 0.0 6.0 0.00 0.00 0.00 71 1014.4
20260903114602 62 330 1.0 6.0 0.00 0.00 0.00 72 1014.3
20260903114104 62 299 0.0 1.0 0.00 0.00 0.00 72 1014.4
20260903113606 62 299 0.0 8.0 0.00 0.00 0.00 72 1014.3
20260903113138 63 309 0.0 0.0 0.00 0.00 0.00 72 1014.3
20260903113125 62 293 0.0 8.0 0.00 0.00 0.00 72 1014.3
20260903112054 63 309 0.0 4.0 0.00 0.00 0.00 72 1014.4
20260903111551 63 309 0.0 4.0 0.00 0.00 0.00 72 1014.3
20260903111049 63 296 0.0 1.0 0.00 0.00 0.00 72 1014.4
20260903110544 63 296 0.0 1.0 0.00 0.00 0.00 72 1014.4
20260903110331 63 296 0.0 0.0 0.00 0.00 0.00 71 1014.4
20260903105542 63 296 0.0 5.0 0.00 0.00 0.00 71 1014.5
20260903105115 63 294 0.0 0.0 0.00 0.00 0.00 71 1014.5
20260903105058 63 296 0.0 5.0 0.00 0.00 0.00 71 1014.5
20260903104036 64 294 0.0 0.0 0.00 0.00 0.00 70 1014.5
20260903103533 64 294 0.0 5.0 0.00 0.00 0.00 70 1014.4
20260903103314 64 294 0.0 5.0 0.00 0.00 0.00 70 1014.5
20260903102533 64 302 0.0 0.0 0.00 0.00 0.00 69 1014.5
20260903102033 64 302 0.0 1.0 0.00 0.00 0.00 69 1014.4
20260903101533 64 302 0.0 1.0 0.00 0.00 0.00 69 1014.5
20260903101311 64 300 0.0 0.0 0.00 0.00 0.00 68 1014.5
20260903100532 64 300 0.0 7.0 0.00 0.00 0.00 68 1014.5
20260903100035 64 300 0.0 7.0 0.00 0.00 0.00 68 1014.3
20260903095533 64 302 0.0 9.0 0.00 0.00 0.00 67 1014.5
20260903095032 65 302 2.0 9.0 0.00 0.00 0.00 67 1014.5
20260903094812 65 279 0.0 1.0 0.00 0.00 0.00 67 1014.5
20260903094023 65 279 0.0 1.0 0.00 0.00 0.00 67 1014.4
20260903093522 65 296 0.0 8.0 0.00 0.00 0.00 66 1014.5
20260903093014 65 295 1.0 8.0 0.00 0.00 0.00 66 1014.5
20260903092510 65 300 0.0 11.0 0.00 0.00 0.00 66 1014.4
20260903092005 65 272 2.0 11.0 0.00 0.00 0.00 66 1014.5
20260903091503 65 296 0.0 1.0 0.00 0.00 0.00 65 1014.5
20260903091004 65 296 0.0 10.0 0.00 0.00 0.00 65 1014.5